Regional Weather Roundup
Issued by NWS Charleston, SC

Current Version | Previous Version | Graphics & Text | Print | Product List | Glossary On
Versions: 1 2 3 4 5 6 7 8 9 10 11 12 13 14 15 16 17 18 19 20 21 22 23 24 25 26 27 28 29 30 31 32 33 34 35 36 37 38 39 40 41 42 43 44 45 46 47 48 49 50
000 ASUS42 KCHS 282313 RWRCHS REGIONAL WEATHER ROUNDUP NATIONAL WEATHER SERVICE CHARLESTON SC 700 PM EDT THU JUL 28 2016 NOTE: "FAIR" INDICATES FEW OR NO CLOUDS BELOW 12,000 FEET WITH NO SIGNIFICANT WEATHER AND/OR OBSTRUCTIONS TO VISIBILITY. NOT ALL STATIONS ARE QUALITY CONTROLLED. USE DATA WITH CAUTION... ESPECIALLY DEWPOINT OBSERVATIONS. SCZ027-030-031-034>040-042>050-290000- ...SOUTHEAST SOUTH CAROLINA... CITY SKY/WX TMP DP RH WIND PRES REMARKS N CHARLESTON MOSUNNY 91 76 61 S14 29.93S HX 103 WATERFRONT PRK N/A 89 79 72 SW12 29.92S HX 104 MOUNT PLEASANT FAIR 90 79 70 S13 29.93S HX 105 JOHNS ISLAND FAIR 90 79 70 S13G20 29.94S HX 105 PINOPOLIS N/A 93 72 49 SW9 29.83S HX 100 MONCKS CORNER FAIR 90 63 40 SW12 29.91S HX 90 SUMMERVILLE NOT AVBL BEAUFORT MCAS MOSUNNY 92 78 63 S9 29.93S HX 107 BEAUFORT ARPT FAIR 90 79 70 S13 29.93S HX 105 HILTON HEAD IS SUNNY 93 79 62 S14 29.95S HX 110 WALTERBORO CLEAR 97 63 32 W6 29.93S HX 98 ALLENDALE FAIR 95 64 36 VRB5G14 29.91S HX 97 ...SOUTHERN MIDLANDS AND PEE DEE... CITY SKY/WX TMP DP RH WIND PRES REMARKS GEORGETOWN FAIR 88 75 66 S12G17 29.92F HX 97 KINGSTREE FAIR 93 63 36 SW6 29.89F HX 94 ORANGEBURG SUNNY 95 67 39 SW10 29.91S HX 99 BARNWELL NOT AVBL AIKEN FAIR 91 64 40 SW12 29.95F HX 93 MANNING FAIR 93 68 43 S9G17 29.90S HX 97 COLUMBIA MOSUNNY 97 66 36 SW15 29.88S HX 100 SUMTER SUNNY 96 67 38 SW16 29.86F HX 100 FLORENCE SUNNY 94 69 44 SW12 29.88S HX 99 MYRTLE BEACH MOSUNNY 90 73 58 SW14G23 29.91F HX 98 N MYRTLE BEACH SUNNY 87 77 72 SW22 29.90S HX 99 $$ GAZ063-065-086>088-099>101-113>116-118-119-134>141-150-290000- ...SOUTHEAST GEORGIA... CITY SKY/WX TMP DP RH WIND PRES REMARKS SAVANNAH ARPT MOSUNNY 97 64 33 SW9 29.93F HX 99 HUNTER AAF NOT AVBL FORT STEWART NOT AVBL STATESBORO SUNNY 96 70 42 W5 29.93S HX 102 SYLVANIA NOT AVBL CLAXTON FAIR 97 67 37 SW7 29.94S HX 101 ...CSRA...CENTRAL AND FAR SOUTHEAST GEORGIA... CITY SKY/WX TMP DP RH WIND PRES REMARKS THOMSON NOT AVBL AUGUSTA-BUSH MOSUNNY 97 64 33 W15G24 29.90F HX 99 AUGUSTA-DANIEL MOSUNNY 95 66 38 W8 29.93S HX 98 SWAINSBORO FAIR 95 63 34 W8G17 29.96R HX 96 VIDALIA MOSUNNY 97 61 30 W10G17 29.95F HX 97 EASTMAN FAIR 96 40 14 W5 29.99S HX 91 HAZLEHURST FAIR 96 66 36 SW5 29.95F HX 99 ALMA SUNNY 95 65 37 W8 29.96F HX 97 WAYCROSS SUNNY 99 69 37 W8 29.96F HX 105 JESUP FAIR 97 72 44 W6 29.95S HX 105 BAXLEY FAIR 97 70 41 W7 29.96S HX 103 BRUNSWICK MOSUNNY 91 81 70 S9 29.96F HX 110 SAINT SIMONS SUNNY 89 78 70 S8G17 29.96F HX 103 $$ SCZ027-028-034-036>038-045-046-048>050-GAZ119-141-290000- ...LAKE AND SUPPLEMENTAL COASTAL OBSERVATIONS... STATION/POSITION TIME TEMP WIND PRES WAVE SWELL AIR SEA DIR/SP/G HT/PER HT/PER/DIR (UTC) (F) (DEG/KT/KT) (MB) (FT/S) (FT/S/D) WINYAH BAY NOT AVBL LAKE MURRAY 2200 94 240/ 14/ 20 1011.2F ACE BASIN NERRS NOT AVBL FORT PULASKI 2200 88 180/ 6/ 13 1014.5F SAPELO ISLAND 2200 91 160/ 14 1014.0F $$ ANZ835-935-AMZ111-154-330-350-352-354-370-450-454-472-290000- ...C-MAN AND BUOY OBSERVATIONS... STATION/POSITION TIME TEMP WIND PRES WAVE SWELL AIR SEA DIR/SP/G HT/PER HT/PER/DIR (UTC) (F) (DEG/KT/KT) (MB) (FT/S) (FT/S/D) BUOY 41004 2150 87 86 210/ 16/ 17 1013.6 3/ 5 2/150/ 8 BUOY 41008 2250 87 87 160/ 16/ 19 1014.1F 2/ 4 FOLLY BEACH CMAN 2200 87 200/ 17/ 20 1014.1F CAPERS NEARSHORE 2208 86 85 210/ 16/ 21 1013.8R FRIPP NEARSHORE 2208 87 87 200/ 17/ 21 1013.0F STATION/POSITION TIME TEMP WIND PRES WAVE SWELL AIR SEA DIR/SP/G HT/PER HT/PER/DIR (UTC) (F) (DEG/KT/KT) (MB) (FT/S) (FT/S/D) 5E ST. MARYS GA 2301 86 N/A 2/ 3 FRYING PAN BUOY 2200 87 85 210/ 17/ 21 1012.9F BUOY 41025 2250 87 86 220/ 16/ 17 1011.4F 3/ 3 2/220/ 6 CAPE LOOKOUT NC 2200 87 220/ 10/ 14 1011.5F BUOY 41002 2250 84 85 220/ 10/ 12 1015.3R 4/ 6 3/240/ 6 BUOY 41010 2220 87 88 250/ 2/ 4 1017.5S ST AUGUSTINE FL 2300 84 87 150/ 13/ 15 1016.3F $$

USA.gov is the U.S. government's official web portal to all federal, state and local government web resources and services.